CAPE
20 11 40 91 291 1125 1281 1587 1594 1352 1307 1252 1141 1236 1306 1601 1412 1358 1637 1662 1720 1666 1596 1555 1559 1612 1312 1142 1373 1156 1097 1287 981 951 536 582 859 912 1151 1113 1241 668 437
9 3 45 219 477 1291 1360 1376 1273 1348 1177 1175 1314 1234 1275 1521 1485 1703 1581 1600 1729 1677 1722 1708 1595 1521 1457 1241 1172 1181 1084 1042 1047 982 592 477 651 662 1023 1152 852 281 379
5 24 69 443 964 1252 1370 1321 1439 1386 1143 1661 1666 1385 1639 1669 1900 1887 1775 1752 1714 1597 1574 1627 1903 1706 1498 1309 1228 1047 884 665 741 1018 659 682 847 717 1267 1062 483 966 940
5 143 444 898 1036 1240 1279 1413 1614 1503 1519 1600 1520 1633 1607 1805 1827 1697 1692 1614 1563 1588 1663 1650 1649 1808 1778 1430 1303 1094 940 805 774 963 487 641 544 1119 1029 1046 741 753 799
24 336 731 1069 1076 1216 1357 1497 1544 1453 1391 1637 1659 1363 1469 1667 1681 1621 1546 1485 1539 1610 1640 1689 1691 1705 1749 1470 1202 640 621 840 764 1257 621 554 786 1262 1069 1076 487 944 1126
48 369 887 1052 987 1146 1354 1466 1366 1203 1157 1590 1818 1466 1634 1772 1626 1451 1370 1344 1498 1684 1756 1560 1469 1252 1406 1563 1217 751 937 914 652 555 359 704 882 1020 823 1104 971 1046 1133
92 544 766 900 903 1140 1313 1360 1316 1065 1113 1443 1688 1584 1519 1721 1550 1380 1139 1152 1413 1555 1765 1391 1166 1239 1006 1238 883 1253 1023 331 539 317 433 460 945 1171 1082 1331 1098 982 486
129 711 870 932 1044 1183 1210 1337 1183 1080 1118 1514 1465 1605 1414 1622 1398 1105 1080 1188 1413 1714 1602 1307 1102 1118 1235 968 855 1076 442 470 401 326 241 437 1310 1513 1373 1194 940 1132 439
331 665 1123 1268 1129 1138 1489 1474 1359 1244 1213 1270 1453 1351 1336 1250 1141 990 894 1063 1248 1429 1464 1255 980 998 983 709 732 891 596 13 0 29 158 26 995 1432 1132 1097 1062 1115 661
263 530 831 1210 1301 1481 1580 1776 1772 1552 1352 1219 1343 1219 1131 1032 905 1122 1068 1155 1280 1105 1214 1189 987 980 980 1146 1123 1145 603 344 0 0 0 52 771 515 883 1123 1110 1174 976
165 381 624 974 1309 1345 1413 1524 1610 1693 1529 1284 1193 1012 571 637 976 1017 861 992 1159 1177 337 198 790 989 1129 1191 1170 953 1258 529 33 0 15 124 539 1194 742 1028 1150 737 1188
201 248 473 794 981 1183 1177 1273 1275 1231 1183 891 695 399 535 595 789 1165 963 563 881 716 230 328 829 1319 1123 629 527 483 533 135 76 0 0 212 695 1545 1242 1271 1098 1002 1140
384 400 436 561 855 824 564 974 754 557 268 179 127 112 252 722 913 814 581 661 495 0 0 375 615 735 995 777 314 81 300 106 184 142 259 572 931 1420 1636 1288 1396 1150 1196
531 613 555 482 457 401 228 633 280 149 34 45 252 591 509 659 704 604 267 451 542 73 355 416 542 810 921 562 107 68 66 385 234 458 154 568 744 1058 1328 1481 1453 1166 1358
593 698 686 743 502 320 209 156 119 166 125 156 295 595 783 756 528 344 521 642 557 290 330 584 822 923 959 854 851 309 10 42 422 544 273 445 415 926 1124 1686 1530 1393 1211
586 651 792 777 792 595 751 389 75 313 341 290 407 608 864 781 607 366 543 858 758 668 328 1012 787 565 525 214 189 389 374 23 178 379 428 603 462 673 1002 1157 1160 1398 1622
588 708 737 816 836 779 926 708 187 513 660 561 588 846 981 1052 921 914 1032 980 830 1039 1125 628 801 682 50 5 0 20 16 15 19 68 241 363 532 549 483 910 917 975 1079
569 681 717 914 832 877 903 439 1115 986 473 551 761 945 975 1005 1065 999 907 524 787 786 823 725 683 623 62 1 0 0 5 25 27 12 34 148 640 535 491 325 475 589 751
606 691 659 829 661 584 729 890 947 781 677 832 906 916 916 881 1087 1095 755 686 715 878 675 723 493 272 2 0 0 0 8 17 31 42 34 222 502 652 504 453 334 543 669
614 731 757 535 484 613 708 1214 772 771 579 784 766 867 1001 1121 1187 686 754 906 699 877 731 466 156 0 0 0 0 0 6 1 22 20 0 134 520 656 532 441 509 527 689
584 707 858 692 580 642 567 927 673 502 502 591 924 720 1187 1257 1231 740 709 1084 1056 881 434 185 4 0 0 0 0 0 7 9 4 0 0 148 92 235 509 382 782 819 641
522 814 888 752 623 560 691 765 658 391 446 413 757 735 780 805 1023 819 898 958 922 681 257 19 0 0 0 0 0 0 0 13 0 0 0 23 16 23 4 15 143 356 224
561 650 785 801 769 641 669 663 635 581 636 862 964 790 762 851 1010 937 1092 732 612 771 457 27 0 0 0 0 0 0 0 0 16 0 0 0 0 0 1 0 23 99 54
487 608 645 913 1002 942 956 772 811 435 793 1094 1176 999 872 1085 1057 1228 806 755 284 413 169 0 0 0 0 0 0 0 0 0 0 0 0 0 0 0 0 0 0 7 18
431 507 543 698 1128 1148 1146 977 889 656 739 791 953 1167 1302 1345 1220 1142 938 865 377 105 0 0 0 0 9 0 0 0 0 0 0 0 0 0 0 0 0 0 0 0 15
320 535 522 489 1048 1228 1255 1177 945 831 761 602 424 802 1231 1421 1431 1146 1056 993 289 107 25 9 0 0 15 11 0 0 0 0 0 0 0 0 0 0 0 0 0 0 0
CIN
-3 -13 -8 -11 -11 -0 -0 -0 -2 -25 -31 -40 -50 -36 -34 -18 -30 -28 -15 -12 -1 -0 -0 -0 -0 -0 -4 -11 -2 -8 -11 -3 -11 -6 -21 -7 -0 -0 -0 -0 -0 -7 -49
-15 -19 -9 -9 -7 -0 -0 -2 -17 -21 -32 -41 -29 -39 -34 -20 -28 -3 -18 -4 -0 -0 -0 -0 -0 -0 -5 -8 -8 -10 -11 -13 -6 -10 -17 -15 -7 -10 -0 -0 -0 -35 -29
-12 -11 -13 -2 -0 -0 -0 -3 -4 -12 -29 -6 -11 -24 -9 -17 -0 -0 -0 -0 -0 -0 -1 -1 -0 -0 -3 -9 -8 -13 -16 -22 -15 -4 -16 -15 -3 -3 -0 -0 -4 -0 -0
-6 -12 -2 -0 -0 -0 -0 -0 -0 -4 -5 -7 -14 -8 -19 -7 -4 -0 -0 -0 -0 -0 -0 -0 -0 -0 -1 -15 -8 -11 -15 -15 -11 -5 -32 -17 -3 -0 -0 -0 -0 -0 -0
-51 -6 -1 -0 -0 -0 -0 -0 -0 -3 -10 -7 -8 -32 -26 -8 -0 -0 -0 -4 -5 -2 -0 -0 -3 -7 -6 -15 -16 -15 -10 -12 -39 -12 -23 -22 -2 -0 -0 -0 -5 -0 -0
-65 -17 -0 -0 -1 -0 -0 -0 -2 -16 -23 -5 -11 -27 -6 -0 -0 -5 -14 -13 -4 -2 -1 -13 -27 -39 -31 -18 -22 -15 -21 -29 -74 -26 -25 -14 -6 -1 -1 -0 -0 -0 -0
-78 -11 -2 -1 -9 -1 -0 -0 -5 -27 -28 -19 -12 -10 -11 -6 -5 -16 -35 -32 -21 -12 -5 -20 -38 -39 -46 -21 -20 -26 -49 -80 -76 -91 -43 -22 -7 -0 -0 -0 -0 -0 -10
-94 -9 -2 -5 -7 -2 -1 -0 -16 -27 -28 -11 -21 -14 -24 -16 -26 -37 -31 -25 -16 -6 -8 -27 -43 -41 -31 -24 -18 -23 -72 -94 -91 -132 -116 -72 -1 -0 -0 -0 -1 -0 -34
-70 -27 -0 -0 -2 -1 -0 -0 -11 -21 -23 -28 -24 -32 -36 -35 -35 -33 -33 -23 -18 -10 -18 -37 -51 -43 -30 -23 -31 -49 -78 -37 -0 -201 -114 -193 -25 -0 -0 -1 -2 -0 -14
-84 -52 -22 -1 -1 -0 -0 -0 -0 -10 -24 -40 -39 -42 -39 -34 -39 -38 -45 -34 -23 -33 -43 -52 -49 -37 -27 -22 -16 -12 -65 -104 -0 -0 -0 -178 -65 -46 -7 -0 -0 -0 -0
-103 -73 -47 -24 -4 -6 -3 -0 -2 -7 -19 -46 -53 -54 -58 -54 -45 -43 -53 -45 -39 -41 -78 -91 -53 -38 -26 -29 -21 -10 -27 -100 -152 -0 -59 -149 -76 -2 -16 -5 -0 -9 -0
-113 -100 -80 -53 -35 -16 -20 -22 -29 -51 -54 -80 -84 -92 -64 -77 -68 -53 -59 -75 -47 -53 -80 -55 -39 -29 -32 -34 -22 -46 -79 -137 -139 -0 -0 -99 -58 -0 -2 -1 -0 -3 -0
-99 -100 -103 -94 -64 -68 -101 -64 -89 -125 -133 -137 -128 -125 -100 -81 -61 -62 -88 -78 -69 -0 -0 -54 -37 -38 -38 -37 -64 -158 -99 -170 -108 -111 -78 -55 -26 -3 -0 -1 -0 -0 -0
-89 -80 -97 -111 -119 -120 -141 -108 -130 -152 -145 -163 -108 -91 -83 -70 -65 -64 -105 -96 -85 -121 -67 -42 -44 -36 -33 -24 -67 -123 -183 -78 -99 -60 -96 -39 -24 -7 -1 -0 -0 -0 -0
-97 -75 -84 -92 -122 -129 -141 -173 -170 -129 -125 -110 -97 -79 -68 -52 -52 -80 -76 -61 -57 -80 -52 -49 -50 -35 -33 -26 -17 -32 -14 -132 -62 -50 -62 -36 -26 -13 -7 -0 -4 -0 -0
-106 -104 -83 -105 -115 -100 -87 -120 -161 -95 -89 -83 -74 -56 -62 -55 -68 -85 -59 -49 -56 -54 -68 -33 -36 -42 -43 -70 -61 -38 -41 -23 -94 -50 -45 -35 -27 -25 -13 -7 -6 -0 -0
-143 -127 -122 -110 -111 -92 -85 -75 -116 -64 -71 -55 -44 -51 -47 -50 -56 -50 -43 -45 -44 -41 -39 -35 -33 -37 -86 -42 -2 -31 -15 -18 -35 -144 -67 -58 -36 -22 -24 -12 -13 -13 -7
-144 -139 -129 -91 -106 -84 -65 -98 -36 -38 -53 -67 -54 -43 -35 -37 -42 -41 -43 -50 -43 -39 -32 -36 -27 -30 -59 -42 -0 -0 -39 -23 -19 -40 -88 -113 -47 -33 -26 -25 -26 -22 -12
-159 -138 -132 -105 -113 -111 -94 -53 -29 -23 -38 -38 -34 -42 -36 -39 -38 -27 -45 -42 -45 -39 -35 -25 -39 -50 -22 -0 -0 -0 -37 -27 -23 -161 -21 -70 -44 -39 -31 -21 -25 -21 -10
-162 -141 -126 -150 -137 -121 -93 -37 -35 -37 -34 -45 -39 -35 -36 -36 -32 -39 -46 -41 -37 -32 -32 -41 -81 -0 -0 -0 -0 -0 -40 -11 -32 -23 -0 -130 -40 -35 -48 -40 -32 -34 -25
-150 -150 -138 -156 -158 -145 -137 -79 -81 -76 -51 -49 -43 -46 -36 -38 -32 -47 -46 -41 -27 -28 -49 -94 -17 -0 -0 -0 -0 -0 -38 -42 -41 -0 -0 -118 -132 -79 -40 -48 -39 -45 -38
-152 -158 -162 -166 -175 -181 -148 -108 -92 -107 -100 -73 -40 -53 -42 -41 -42 -41 -46 -42 -36 -56 -102 -67 -0 -0 -0 -0 -0 -0 -3 -21 -0 -0 -0 -56 -54 -48 -13 -147 -112 -57 -80
-166 -176 -199 -203 -187 -194 -178 -144 -116 -115 -90 -41 -33 -40 -57 -52 -47 -48 -43 -56 -79 -70 -99 -141 -0 -0 -0 -0 -0 -0 -0 -0 -27 -0 -0 -7 -0 -0 -18 -0 -83 -106 -144
-195 -180 -204 -199 -183 -195 -169 -138 -123 -168 -95 -50 -33 -33 -48 -49 -46 -45 -72 -77 -144 -139 -177 -0 -0 -0 -0 -0 -0 -0 -0 -0 -0 -0 -0 -0 -0 -0 -0 -0 -0 -74 -70
-227 -224 -213 -223 -179 -172 -155 -153 -147 -165 -131 -87 -46 -35 -40 -52 -50 -44 -66 -100 -163 -237 -0 -0 -2 -0 -234 -0 -0 -0 -0 -0 -0 -0 -0 -0 -0 -0 -0 -0 -0 -0 -85
-277 -232 -241 -254 -181 -180 -153 -150 -177 -178 -150 -153 -166 -80 -41 -47 -48 -53 -74 -97 -209 -267 -303 -325 -0 -0 -209 -216 -0 -0 -0 -0 -0 -0 -0 -0 -0 -0 -0 -0 -0 -0 -0
Wind_Speed
32 35 39 32 28 26 23 20 22 23 22 22 21 23 25 27 26 27 26 25 25 22 14 12 9 4 15 23 25 4 5 7 12 13 3 21 25 26 26 7 5 5 7
34 36 32 27 29 24 24 23 22 22 21 21 25 25 26 27 27 27 25 25 23 21 15 12 9 6 7 6 9 22 14 6 7 19 21 24 23 24 24 17 4 5 8
37 36 35 32 30 30 26 25 23 21 22 25 25 25 26 27 27 25 25 25 23 17 12 9 9 7 6 13 19 18 21 14 5 21 13 22 22 26 28 16 7 7 8
39 39 38 35 34 32 29 26 21 22 24 24 25 26 26 27 26 25 25 24 22 17 9 9 7 6 9 11 21 17 11 18 8 18 19 19 22 25 25 25 14 4 7
38 38 37 35 33 32 29 23 21 24 24 24 25 26 27 26 26 25 25 25 24 14 11 9 7 7 9 7 9 18 17 19 17 14 21 23 23 23 22 23 23 25 18
37 36 35 34 32 30 26 24 24 24 23 24 26 25 26 26 25 24 24 25 25 24 6 7 11 11 10 7 9 19 21 20 20 19 18 22 23 23 24 23 23 20 19
35 34 33 32 31 29 27 26 25 24 25 25 24 25 26 25 24 23 24 24 23 22 18 17 18 19 21 23 23 21 22 21 21 18 12 19 22 23 24 22 21 20 22
32 32 31 30 31 30 28 27 27 27 26 26 26 25 24 23 22 22 21 21 21 19 19 16 15 16 18 23 23 23 22 22 22 20 9 21 22 21 22 21 21 20 21
28 29 29 30 31 30 29 29 28 28 27 26 25 24 22 22 20 19 18 17 17 18 17 18 17 16 16 21 21 21 20 20 20 21 21 20 21 18 18 20 21 21 20
26 27 31 31 32 31 31 30 29 28 27 25 25 23 21 19 18 17 17 16 16 17 17 17 16 14 13 13 13 18 18 18 18 19 20 20 19 18 17 17 19 20 20
24 29 31 33 32 30 31 30 28 28 27 26 24 22 21 19 17 16 16 15 16 18 17 15 14 13 10 10 11 18 17 16 18 16 19 19 17 17 16 16 16 17 18
27 32 32 33 33 31 31 30 29 28 27 26 24 22 21 19 17 18 18 17 17 17 15 15 14 11 11 10 13 15 17 18 17 18 19 19 19 18 16 16 15 15 16
30 32 33 33 33 32 31 30 29 28 26 25 24 23 21 19 19 19 17 16 17 18 16 16 13 13 15 12 10 15 18 18 17 17 17 18 19 19 19 19 18 17 17
32 32 33 33 33 33 32 30 29 27 26 26 25 23 21 19 20 18 18 17 17 17 17 16 14 13 13 14 16 10 18 17 18 17 17 18 18 19 20 20 19 18 17
33 33 33 33 33 32 31 29 28 27 27 26 24 22 21 20 19 19 18 16 15 15 16 14 13 15 16 16 12 13 13 15 17 16 17 18 18 18 19 19 19 18 18
32 33 33 32 32 32 31 28 28 27 26 25 24 23 21 20 17 17 17 16 15 15 14 14 14 14 16 15 11 11 11 14 15 15 16 17 17 17 18 18 19 18 18
34 33 33 31 31 31 29 28 27 26 24 24 24 22 21 18 17 16 15 15 14 14 13 13 14 16 16 17 18 15 15 17 18 18 17 16 16 17 17 17 17 17 17
34 33 32 31 31 30 28 28 25 24 23 24 23 21 21 18 16 14 13 13 13 13 12 12 14 13 14 15 17 17 15 15 16 17 15 15 17 16 16 16 16 16 15
34 32 31 31 31 31 28 28 26 24 23 21 20 20 20 18 16 13 13 13 12 12 12 12 14 15 16 15 14 16 16 16 17 17 18 17 15 15 14 15 14 14 13
31 31 31 30 29 28 26 24 23 24 24 21 17 17 19 18 15 12 12 11 12 12 13 13 15 16 15 16 15 13 15 16 15 16 17 17 17 17 15 13 12 12 12
29 30 31 29 28 25 24 22 23 25 25 22 19 19 17 16 13 10 9 10 10 12 13 14 15 17 15 16 16 14 13 15 15 14 15 17 17 16 15 14 14 12 12
31 31 29 28 26 25 24 22 22 23 25 24 21 19 17 14 13 9 8 9 10 11 13 14 15 17 16 16 15 14 13 12 12 12 13 15 16 16 16 15 15 12 11
29 30 30 27 25 24 22 18 15 18 20 24 24 20 18 15 12 10 10 10 10 11 12 13 14 15 15 16 16 14 14 11 10 10 11 12 14 14 14 15 15 14 13
28 27 27 24 24 22 20 19 20 18 19 20 18 19 15 14 12 11 10 9 11 12 12 12 14 15 16 16 16 17 16 13 12 11 10 10 10 11 12 12 12 12 12
28 26 25 23 23 21 21 18 19 17 18 17 13 11 11 11 11 11 11 12 12 14 14 14 15 15 16 16 13 13 15 15 14 13 11 10 12 10 9 9 8 9 9
25 24 23 22 20 19 20 18 19 19 18 16 14 9 10 10 12 12 14 15 15 14 14 13 14 15 16 17 16 14 13 14 12 13 14 14 12 12 13 10 8 6 7
Wind_Direction
151 154 138 109 101 95 90 83 81 80 77 74 69 68 69 71 70 72 66 61 57 44 13 5 350 286 153 122 107 296 321 342 9 7 336 132 122 121 133 33 14 353 25
156 125 116 104 104 97 92 87 81 80 75 71 75 74 72 73 75 77 65 62 51 37 13 0 345 309 204 219 192 121 159 218 203 115 120 122 130 134 146 176 267 356 34
128 122 119 111 106 104 97 91 85 79 76 78 76 75 76 75 78 71 70 71 51 22 353 334 331 320 220 163 133 140 120 151 265 118 153 133 134 124 113 176 220 236 31
127 137 127 118 115 111 105 95 84 81 81 78 78 77 78 82 77 73 72 65 49 16 332 327 308 262 190 181 97 105 130 131 214 145 139 141 134 85 94 88 186 252 9
130 132 128 120 117 114 107 95 88 88 82 80 81 80 87 82 89 95 81 75 64 4 339 324 295 225 181 216 309 18 21 28 8 138 133 102 86 82 80 85 83 93 63
129 129 126 123 118 116 108 100 98 94 86 87 90 85 92 102 106 105 106 91 87 94 245 230 178 175 181 275 314 20 43 41 36 41 80 109 96 93 98 93 88 75 66
127 131 128 125 121 118 113 112 106 101 100 101 93 97 110 111 111 115 111 102 102 102 123 133 128 121 102 50 38 33 42 50 51 45 223 147 97 101 101 94 85 82 90
124 130 128 126 127 124 121 120 118 117 118 121 121 126 119 118 121 124 122 113 106 115 116 135 145 133 115 51 46 59 54 57 71 92 222 161 138 93 96 97 92 89 91
123 125 126 131 135 133 128 133 130 131 136 139 136 139 137 134 135 135 133 134 126 121 129 122 125 132 122 79 78 75 81 84 76 89 140 175 107 92 91 100 99 103 97
123 125 134 137 142 140 142 140 137 140 142 143 144 143 146 148 148 147 142 138 143 137 135 137 138 142 135 127 129 99 100 98 107 108 120 107 105 96 95 95 99 105 106
126 134 140 146 145 139 145 146 141 148 149 152 153 156 159 153 157 155 148 155 146 137 137 149 146 142 152 151 145 105 112 119 118 134 115 106 99 103 97 97 96 100 105
135 147 146 149 149 144 153 152 150 154 155 158 157 160 165 158 158 155 141 141 141 141 159 150 152 150 149 151 130 112 111 119 128 126 132 131 123 116 106 105 103 101 106
144 147 154 152 151 151 159 156 157 161 158 163 162 160 157 156 154 141 136 139 134 134 154 144 146 130 108 121 147 114 95 111 126 121 128 135 138 135 128 127 122 117 116
150 151 150 154 153 158 163 160 161 164 163 165 163 164 156 154 140 139 152 139 137 139 128 123 134 135 116 115 100 144 93 108 119 120 125 132 141 144 143 135 131 126 126
155 153 153 153 157 161 163 168 170 167 167 169 166 162 155 153 140 133 146 138 148 148 129 131 140 99 91 99 119 115 126 107 117 119 121 128 134 140 139 144 140 136 138
152 154 156 157 159 158 163 162 166 166 168 174 177 172 158 153 136 135 137 136 148 151 144 128 94 83 63 80 112 121 125 106 104 119 126 127 125 128 136 139 147 146 145
159 156 158 157 162 161 164 162 170 175 171 175 176 170 156 145 136 131 116 120 120 131 124 104 75 53 58 67 58 79 93 72 91 99 123 124 127 124 126 133 139 142 148
163 160 160 161 162 162 159 162 164 166 167 170 165 166 152 144 140 125 113 116 102 99 82 74 61 64 71 65 45 51 95 80 93 77 97 111 123 122 120 120 131 135 140
166 164 163 163 164 166 160 165 169 165 155 148 147 150 152 150 139 118 110 104 89 81 65 66 59 51 49 44 45 52 55 63 63 66 69 71 98 105 99 112 117 126 129
166 167 167 164 164 163 160 160 163 169 173 163 147 143 149 150 139 115 105 92 76 73 67 70 49 40 36 31 42 62 56 40 71 67 60 51 52 74 74 73 73 70 94
167 169 170 167 166 161 161 158 165 174 178 172 162 158 149 151 145 124 100 76 79 77 78 66 46 30 39 37 29 26 34 36 56 70 48 56 53 51 53 47 40 45 33
172 173 170 170 167 166 165 164 166 169 181 179 172 165 158 153 145 127 115 101 86 64 69 53 43 40 48 37 26 17 14 28 38 43 43 60 58 59 56 54 52 48 35
173 175 175 173 172 170 168 161 154 159 162 176 183 176 169 157 150 131 117 95 79 83 87 79 61 62 52 35 31 29 10 11 18 24 36 50 58 59 51 50 53 50 49
178 176 176 175 174 173 169 168 169 166 166 169 166 171 162 160 147 136 111 83 78 88 95 91 66 54 42 23 17 13 16 22 2 360 15 34 44 35 42 48 48 56 51
181 181 180 177 176 175 175 173 173 173 173 170 163 153 155 151 143 137 122 111 103 110 107 98 90 82 60 40 25 31 20 18 24 11 5 3 0 20 29 26 44 50 55
181 183 184 184 185 181 179 179 180 181 179 176 175 165 155 155 150 143 136 130 123 114 105 97 87 77 79 89 95 81 51 35 26 11 6 2 6 4 351 1 13 32 27